Location: Cold Norton
(51.6667°N, 0.6667°E)
Time: 00:46:03
(UTC+00:00)

Cosmos 2058 - Pass Details

Date: 18 November 2025
Orbit: 529 x 540 km, 82.5° (Epoch: 12 December)

Event Time Altitude Azimuth Distance (km) Brightness Sun altitude
Rises 17:26:36 0° 352° (N) 2,708 6.3 -12.7°
Reaches altitude 10° 17:28:48 10° 357° (N) 1,813 5.3 -13.0°
Maximum altitude 17:32:43 55° 76° (ENE) 659 2.8 -13.6°
Drops below altitude 10° 17:36:37 10° 155° (SSE) 1,804 5.3 -14.2°
Sets 17:38:48 0° 160° (SSE) 2,693 6.3 -14.5°
